Location: Enborne
(51.3833°N, 1.3667°W)
Time: 22:34:31
(UTC+00:00)

OBJECT-B - Pass Details

Date: 18 September 2020
Orbit: 421 x 433 km, 97.0° (Epoch: 09 October)

Event Time Altitude Azimuth Distance (km) Brightness Sun altitude
Exits shadow 19:01:25 12° 99° (E) 1,411 2.7 -8.5°
Maximum altitude 19:03:09 17° 64° (ENE) 1,179 2.6 -8.7°
Drops below altitude 10° 19:05:18 10° 22° (NNE) 1,525 3.5 -9.0°
Sets 19:07:49 0° 1° (N) 2,399 4.8 -9.4°
